Flag for Germany Weather past 2 weeks in Plettenberg, North Rhine-Westphalia, Germany

Now
50 °F

Scattered showers. Partly sunny.


Feels Like: 45 °F
Forecast: 35 / 59 °F
Wind: 13 mph from Northwest

Location: Dortmund / Wickede

Current Time: May 26, 2015 at 1:47:49 PM

Latest Report: May 26, 2015 at 1:20 PM


Visibility: N/A

Pressure: 30.12 "Hg

Humidity: 71%

Dew point: 41 °F

Location of PlettenbergLocation

Historic Weather in Plettenberg — Graph

°F

Plettenberg temperature yesterday

Maximum temperature yesterday: 59 °F (at 4:50 PM)
Minimum temperature yesterday: 48 °F (at 5:50 AM)
Average temperature yesterday: 53 °F

Past Weeks' High & Low Weather Summary

 TemperatureHumidityPressure
High77 °F (May 11, 3:50 PM)94% (May 25, 11:50 AM)30.33 "Hg (May 25, 11:50 AM)
Low39 °F (May 14, 5:20 AM)29% (May 11, 2:50 PM)29.62 "Hg (May 18, 7:20 PM)
Average56 °F59%30.04 "Hg
* Reported May 11 12:20 PM — May 26 12:50 PM, Plettenberg, Weather by CustomWeather, © 2015

Note: Actual official high and low records may vary slightly from our data, if they occured in-between our weather recording intervals... More about our weather records

Advertising

Plettenberg weather history for previous 24 hours

 ConditionsComfort  
Time TempWeatherWind HumidityBarometerVisibility
12:50 PM
Tue, May 26
50 °FSprinkles. Partly sunny.15 mph71%30.12 "HgN/A
12:20 PM54 °FScattered showers. Partly sunny.10 mph58%30.09 "HgN/A
11:50 AM54 °FPartly sunny.12 mph54%30.09 "HgN/A
11:20 AM54 °FPartly sunny.12 mph58%30.09 "HgN/A
10:50 AM54 °FBroken clouds.10 mph58%30.09 "HgN/A
10:20 AM52 °FPartly sunny.12 mph67%30.09 "HgN/A
9:50 AM52 °FPartly sunny.10 mph62%30.09 "HgN/A
9:20 AM52 °FPartly sunny.9 mph67%30.09 "HgN/A
8:50 AM50 °FBroken clouds.8 mph71%30.09 "HgN/A
8:20 AM50 °FPartly sunny.7 mph76%30.09 "HgN/A
7:50 AM48 °FScattered clouds.7 mph76%30.07 "HgN/A
7:20 AM48 °FScattered clouds.9 mph76%30.07 "HgN/A
6:50 AM48 °FScattered clouds.8 mph76%30.07 "HgN/A
6:20 AM48 °FClear.6 mph76%30.07 "Hg10 mi
5:20 AM48 °FPassing clouds.7 mph76%30.04 "HgN/A
10:50 PM
Mon, May 25
52 °FClear.7 mph67%29.98 "Hg10 mi
10:20 PM54 °FPassing clouds.8 mph58%29.98 "HgN/A
9:50 PM54 °FSunny.9 mph63%29.98 "Hg10 mi
9:20 PM54 °FPassing clouds.8 mph63%29.98 "HgN/A
8:50 PM55 °FSunny.8 mph59%29.95 "Hg10 mi
8:20 PM55 °FScattered clouds.7 mph59%29.95 "HgN/A
7:50 PM55 °FSunny.8 mph59%29.95 "Hg10 mi
7:20 PM57 °FSunny.8 mph55%29.95 "Hg10 mi
6:50 PM57 °FPartly sunny.7 mph59%29.95 "HgN/A
6:20 PM57 °FPartly sunny.12 mph59%29.95 "HgN/A
5:50 PM59 °FSunny.2 mph63%29.95 "Hg10 mi
5:20 PM57 °FPartly sunny.3 mph63%29.95 "HgN/A
4:50 PM59 °FPartly sunny.7 mph59%29.95 "HgN/A
4:20 PM57 °FScattered clouds.2 mph63%29.95 "HgN/A
3:50 PM57 °FScattered clouds.6 mph72%29.95 "HgN/A
3:20 PM57 °FScattered clouds.2 mph72%29.95 "HgN/A
2:50 PM54 °FPartly sunny.3 mph77%29.98 "HgN/A
2:20 PM52 °FPartly sunny.3 mph82%29.98 "HgN/A
1:50 PM52 °FPartly sunny.2 mph82%29.98 "Hg6 mi
1:20 PM52 °FFog.5 mph88%29.98 "Hg3 mi
Weather by CustomWeather, © 2015

See weather overviewHow to use our weather pages